Time,TemperatureF,DewpointF,PressureIn,WindDirection,WindDirectionDegrees,WindSpeedMPH,WindSpeedGustMPH,Humidity,HourlyPrecipIn,Conditions,Clouds,dailyrainin,SoftwareType,DateUTC
2013-05-25 00:02:00,61.0,43.0,30.22,SE,140,11.0,16.0,52,-99.99,,,-99.99,,2013-05-25 05:02:00,
2013-05-25 00:12:00,61.0,43.0,30.21,SE,135,11.0,19.0,52,-99.99,,,-99.99,,2013-05-25 05:12:00,
2013-05-25 00:22:00,61.0,43.0,30.21,SE,140,16.0,22.0,52,-99.99,,,-99.99,,2013-05-25 05:22:00,
2013-05-25 00:32:00,61.0,43.0,30.21,SE,140,16.0,22.0,52,-99.99,,,-99.99,,2013-05-25 05:32:00,
2013-05-25 00:43:00,60.0,43.0,30.21,SE,145,13.0,20.0,53,-99.99,,,-99.99,,2013-05-25 05:43:00,
2013-05-25 00:52:00,60.0,43.0,30.21,SSE,150,12.0,19.0,53,-99.99,,,-99.99,,2013-05-25 05:52:00,
2013-05-25 01:02:00,60.0,43.0,30.21,SSE,150,12.0,19.0,53,-99.99,,,-99.99,,2013-05-25 06:02:00,
2013-05-25 01:12:00,60.0,43.0,30.21,SE,130,13.0,19.0,53,-99.99,,,-99.99,,2013-05-25 06:12:00,
2013-05-25 01:21:00,60.0,43.0,30.21,SSE,150,12.0,19.0,54,-99.99,,,-99.99,,2013-05-25 06:21:00,
2013-05-25 01:32:00,60.0,43.0,30.21,SSE,150,12.0,19.0,54,-99.99,,,-99.99,,2013-05-25 06:32:00,
2013-05-25 01:42:00,60.0,43.0,30.21,SE,145,15.0,21.0,54,-99.99,,,-99.99,,2013-05-25 06:42:00,
2013-05-25 01:52:00,59.0,42.0,30.21,SSE,150,14.0,21.0,53,-99.99,,,-99.99,,2013-05-25 06:52:00,
2013-05-25 02:01:00,59.0,42.0,30.21,SSE,150,14.0,21.0,53,-99.99,,,-99.99,,2013-05-25 07:01:00,
2013-05-25 02:11:00,59.0,42.0,30.22,SSE,150,15.0,20.0,54,-99.99,,,-99.99,,2013-05-25 07:11:00,
2013-05-25 02:21:00,58.0,42.0,30.21,SE,145,12.0,20.0,54,-99.99,,,-99.99,,2013-05-25 07:21:00,
2013-05-25 02:32:00,58.0,42.0,30.21,SSE,155,14.0,19.0,54,-99.99,,,-99.99,,2013-05-25 07:32:00,
2013-05-25 02:42:00,58.0,42.0,30.21,SSE,155,14.0,19.0,54,-99.99,,,-99.99,,2013-05-25 07:42:00,
2013-05-25 02:52:00,58.0,42.0,30.20,SSE,150,15.0,20.0,55,-99.99,,,-99.99,,2013-05-25 07:52:00,
2013-05-25 03:02:00,58.0,42.0,30.20,SSE,150,15.0,20.0,55,-99.99,,,-99.99,,2013-05-25 08:02:00,
2013-05-25 03:11:00,58.0,42.0,30.19,SSE,150,14.0,23.0,55,-99.99,,,-99.99,,2013-05-25 08:11:00,
2013-05-25 03:22:00,58.0,42.0,30.19,SE,145,13.0,21.0,56,-99.99,,,-99.99,,2013-05-25 08:22:00,
2013-05-25 03:32:00,57.0,42.0,30.19,SE,145,14.0,19.0,57,-99.99,,,-99.99,,2013-05-25 08:32:00,
2013-05-25 03:42:00,57.0,42.0,30.19,SE,145,14.0,19.0,57,-99.99,,,-99.99,,2013-05-25 08:42:00,
2013-05-25 03:51:00,57.0,42.0,30.19,SSE,155,15.0,21.0,57,-99.99,,,-99.99,,2013-05-25 08:51:00,
2013-05-25 04:02:00,57.0,42.0,30.19,SSE,155,15.0,21.0,57,-99.99,,,-99.99,,2013-05-25 09:02:00,
2013-05-25 04:11:00,57.0,42.0,30.19,SE,145,15.0,22.0,58,-99.99,,,-99.99,,2013-05-25 09:11:00,
2013-05-25 04:21:00,57.0,42.0,30.19,SSE,150,16.0,20.0,59,-99.99,,,-99.99,,2013-05-25 09:21:00,
2013-05-25 04:33:00,57.0,42.0,30.19,SSE,150,16.0,20.0,59,-99.99,,,-99.99,,2013-05-25 09:33:00,
2013-05-25 04:43:00,56.0,42.0,30.19,SSE,155,16.0,19.0,59,-99.99,,,-99.99,,2013-05-25 09:43:00,
2013-05-25 04:52:00,56.0,43.0,30.19,SE,145,15.0,20.0,61,-99.99,,,-99.99,,2013-05-25 09:52:00,
2013-05-25 05:03:00,56.0,43.0,30.19,SE,145,15.0,20.0,61,-99.99,,,-99.99,,2013-05-25 10:03:00,
2013-05-25 05:12:00,56.0,43.0,30.20,SSE,150,14.0,19.0,61,-99.99,,,-99.99,,2013-05-25 10:12:00,
2013-05-25 05:22:00,56.0,43.0,30.21,SE,145,12.0,18.0,62,-99.99,,,-99.99,,2013-05-25 10:22:00,
2013-05-25 05:33:00,56.0,43.0,30.21,SSE,150,13.0,17.0,62,-99.99,,,-99.99,,2013-05-25 10:33:00,
2013-05-25 05:42:00,56.0,43.0,30.21,SSE,150,13.0,17.0,62,-99.99,,,-99.99,,2013-05-25 10:42:00,
2013-05-25 05:52:00,56.0,43.0,30.21,SE,135,11.0,18.0,63,-99.99,,,-99.99,,2013-05-25 10:52:00,
2013-05-25 06:02:00,56.0,43.0,30.21,SE,135,11.0,18.0,63,-99.99,,,-99.99,,2013-05-25 11:02:00,
2013-05-25 06:12:00,56.0,43.0,30.21,SE,135,12.0,17.0,63,-99.99,,,-99.99,,2013-05-25 11:12:00,
2013-05-25 06:22:00,56.0,44.0,30.21,SSE,150,11.0,18.0,64,-99.99,,,-99.99,,2013-05-25 11:22:00,
2013-05-25 06:32:00,56.0,44.0,30.21,SSE,150,11.0,18.0,64,-99.99,,,-99.99,,2013-05-25 11:32:00,
2013-05-25 06:42:00,55.0,43.0,30.21,SSE,150,12.0,17.0,64,-99.99,,,-99.99,,2013-05-25 11:42:00,
2013-05-25 06:52:00,55.0,44.0,30.21,SSE,150,14.0,18.0,65,-99.99,,,-99.99,,2013-05-25 11:52:00,
2013-05-25 07:01:00,55.0,44.0,30.21,SSE,150,14.0,18.0,65,-99.99,,,-99.99,,2013-05-25 12:01:00,
2013-05-25 07:12:00,56.0,44.0,30.21,SSE,150,13.0,18.0,66,-99.99,,,-99.99,,2013-05-25 12:12:00,
2013-05-25 07:22:00,56.0,45.0,30.23,SSE,160,12.0,20.0,65,-99.99,,,-99.99,,2013-05-25 12:22:00,
2013-05-25 07:32:00,56.0,45.0,30.23,SSE,160,12.0,20.0,65,-99.99,,,-99.99,,2013-05-25 12:32:00,
2013-05-25 07:42:00,57.0,45.0,30.23,SSE,150,13.0,20.0,63,-99.99,,,-99.99,,2013-05-25 12:42:00,
2013-05-25 07:52:00,58.0,46.0,30.24,SSE,150,13.0,22.0,63,-99.99,,,-99.99,,2013-05-25 12:52:00,
2013-05-25 08:02:00,58.0,46.0,30.24,SSE,150,13.0,22.0,63,-99.99,,,-99.99,,2013-05-25 13:02:00,
2013-05-25 08:11:00,58.0,46.0,30.23,SSE,150,14.0,20.0,63,-99.99,,,-99.99,,2013-05-25 13:11:00,
2013-05-25 08:22:00,59.0,46.0,30.23,SSE,150,14.0,21.0,63,-99.99,,,-99.99,,2013-05-25 13:22:00,
2013-05-25 08:32:00,59.0,46.0,30.23,SSE,150,14.0,21.0,63,-99.99,,,-99.99,,2013-05-25 13:32:00,
2013-05-25 08:42:00,59.0,47.0,30.23,SE,145,11.0,20.0,64,-99.99,,,-99.99,,2013-05-25 13:42:00,
2013-05-25 08:52:00,59.0,47.0,30.23,SSE,155,12.0,20.0,63,-99.99,,,-99.99,,2013-05-25 13:52:00,
2013-05-25 09:02:00,59.0,47.0,30.23,SSE,155,12.0,20.0,63,-99.99,,,-99.99,,2013-05-25 14:02:00,
2013-05-25 09:11:00,60.0,47.0,30.22,SE,145,14.0,22.0,63,-99.99,,,-99.99,,2013-05-25 14:11:00,
2013-05-25 09:22:00,60.0,47.0,30.22,SSE,150,15.0,23.0,63,-99.99,,,-99.99,,2013-05-25 14:22:00,
2013-05-25 09:32:00,60.0,47.0,30.22,SSE,150,15.0,23.0,63,-99.99,,,-99.99,,2013-05-25 14:32:00,
2013-05-25 09:42:00,60.0,47.0,30.21,SSE,155,14.0,20.0,62,-99.99,,,-99.99,,2013-05-25 14:42:00,
2013-05-25 09:52:00,62.0,48.0,30.21,SSE,150,15.0,22.0,60,-99.99,,,-99.99,,2013-05-25 14:52:00,
2013-05-25 10:00:00,62.0,49.0,30.20,SE,145,15.0,21.0,62,-99.99,,,-99.99,,2013-05-25 15:00:00,
2013-05-25 10:01:00,62.0,48.0,30.21,SSE,150,15.0,22.0,60,-99.99,,,-99.99,,2013-05-25 15:01:00,
2013-05-25 10:11:00,62.0,49.0,30.20,SSE,155,10.0,21.0,62,-99.99,,,-99.99,,2013-05-25 15:11:00,
2013-05-25 10:22:00,62.0,49.0,30.20,SSE,150,15.0,21.0,62,-99.99,,,-99.99,,2013-05-25 15:22:00,
2013-05-25 10:33:00,62.0,49.0,30.20,SE,145,15.0,21.0,62,-99.99,,,-99.99,,2013-05-25 15:33:00,
2013-05-25 10:43:00,62.0,49.0,30.20,SE,145,15.0,21.0,62,-99.99,,,-99.99,,2013-05-25 15:43:00,
2013-05-25 10:53:00,62.0,49.0,30.20,SE,145,15.0,21.0,62,-99.99,,,-99.99,,2013-05-25 15:53:00,
2013-05-25 11:12:00,66.0,52.0,30.20,SSE,150,9.0,18.0,61,-99.99,,,-99.99,,2013-05-25 16:12:00,
2013-05-25 11:23:00,67.0,52.0,30.20,SSE,155,11.0,20.0,59,-99.99,,,-99.99,,2013-05-25 16:23:00,
2013-05-25 11:32:00,67.0,52.0,30.19,SSE,165,14.0,19.0,58,-99.99,,,-99.99,,2013-05-25 16:32:00,
2013-05-25 11:42:00,67.0,52.0,30.19,SSE,165,14.0,19.0,58,-99.99,,,-99.99,,2013-05-25 16:42:00,
2013-05-25 11:52:00,68.0,52.0,30.19,SSE,150,15.0,20.0,57,-99.99,,,-99.99,,2013-05-25 16:52:00,
2013-05-25 12:03:00,68.0,52.0,30.19,SSE,150,15.0,20.0,57,-99.99,,,-99.99,,2013-05-25 17:03:00,
2013-05-25 12:11:00,69.0,54.0,30.19,SE,140,10.0,15.0,59,-99.99,,,-99.99,,2013-05-25 17:11:00,
2013-05-25 12:22:00,71.0,55.0,30.19,SSE,150,12.0,15.0,57,-99.99,,,-99.99,,2013-05-25 17:22:00,
2013-05-25 12:32:00,72.0,57.0,30.19,South,180,11.0,18.0,59,-99.99,,,-99.99,,2013-05-25 17:32:00,
2013-05-25 12:42:00,72.0,57.0,30.19,South,180,11.0,18.0,59,-99.99,,,-99.99,,2013-05-25 17:42:00,
2013-05-25 12:52:00,72.0,57.0,30.19,SSE,160,9.0,15.0,60,-99.99,,,-99.99,,2013-05-25 17:52:00,
2013-05-25 13:01:00,72.0,57.0,30.19,SSE,160,9.0,15.0,60,-99.99,,,-99.99,,2013-05-25 18:01:00,
2013-05-25 13:11:00,72.0,56.0,30.19,SSE,160,11.0,16.0,57,-99.99,,,-99.99,,2013-05-25 18:11:00,
2013-05-25 13:21:00,72.0,58.0,30.18,SSE,160,9.0,13.0,60,-99.99,,,-99.99,,2013-05-25 18:21:00,
2013-05-25 13:32:00,72.0,58.0,30.18,SSE,160,9.0,13.0,60,-99.99,,,-99.99,,2013-05-25 18:32:00,
2013-05-25 13:42:00,73.0,58.0,30.18,South,180,10.0,14.0,60,-99.99,,,-99.99,,2013-05-25 18:42:00,
2013-05-25 13:52:00,74.0,59.0,30.18,South,190,12.0,16.0,59,-99.99,,,-99.99,,2013-05-25 18:52:00,
2013-05-25 14:01:00,74.0,59.0,30.18,South,190,12.0,16.0,59,-99.99,,,-99.99,,2013-05-25 19:01:00,
2013-05-25 14:11:00,74.0,58.0,30.18,South,185,11.0,15.0,58,-99.99,,,-99.99,,2013-05-25 19:11:00,
2013-05-25 14:22:00,75.0,59.0,30.18,SSE,150,10.0,16.0,58,-99.99,,,-99.99,,2013-05-25 19:22:00,
2013-05-25 14:32:00,75.0,59.0,30.18,SE,145,12.0,16.0,59,-99.99,,,-99.99,,2013-05-25 19:32:00,
2013-05-25 14:42:00,75.0,59.0,30.18,SE,145,12.0,16.0,59,-99.99,,,-99.99,,2013-05-25 19:42:00,
2013-05-25 14:52:00,76.0,59.0,30.17,South,175,8.0,15.0,56,-99.99,,,-99.99,,2013-05-25 19:52:00,
2013-05-25 15:02:00,76.0,59.0,30.17,South,175,8.0,15.0,56,-99.99,,,-99.99,,2013-05-25 20:02:00,
2013-05-25 15:11:00,76.0,61.0,30.17,SSE,165,10.0,14.0,59,-99.99,,,-99.99,,2013-05-25 20:11:00,
2013-05-25 15:22:00,76.0,58.0,30.16,SSE,155,10.0,15.0,54,-99.99,,,-99.99,,2013-05-25 20:22:00,
2013-05-25 15:32:00,76.0,60.0,30.15,SE,145,10.0,17.0,56,-99.99,,,-99.99,,2013-05-25 20:32:00,
2013-05-25 15:42:00,76.0,60.0,30.15,SE,145,10.0,17.0,56,-99.99,,,-99.99,,2013-05-25 20:42:00,
2013-05-25 15:52:00,77.0,59.0,30.15,South,185,7.0,17.0,54,-99.99,,,-99.99,,2013-05-25 20:52:00,
2013-05-25 16:02:00,77.0,59.0,30.15,South,185,7.0,17.0,54,-99.99,,,-99.99,,2013-05-25 21:02:00,
2013-05-25 16:11:00,78.0,59.0,30.15,South,170,9.0,13.0,53,-99.99,,,-99.99,,2013-05-25 21:11:00,
2013-05-25 16:21:00,78.0,60.0,30.14,South,180,8.0,15.0,54,-99.99,,,-99.99,,2013-05-25 21:21:00,
2013-05-25 16:33:00,78.0,60.0,30.14,South,180,8.0,15.0,54,-99.99,,,-99.99,,2013-05-25 21:33:00,
2013-05-25 16:43:00,79.0,61.0,30.13,South,175,8.0,14.0,54,-99.99,,,-99.99,,2013-05-25 21:43:00,
2013-05-25 16:53:00,79.0,60.0,30.13,SSE,165,6.0,17.0,53,-99.99,,,-99.99,,2013-05-25 21:53:00,
2013-05-25 17:03:00,79.0,60.0,30.13,SSE,165,6.0,17.0,53,-99.99,,,-99.99,,2013-05-25 22:03:00,
2013-05-25 17:13:00,78.0,60.0,30.12,SSE,160,9.0,13.0,53,-99.99,,,-99.99,,2013-05-25 22:13:00,
2013-05-25 17:22:00,78.0,59.0,30.12,SSE,160,11.0,17.0,51,-99.99,,,-99.99,,2013-05-25 22:22:00,
2013-05-25 17:32:00,78.0,59.0,30.11,SSE,160,10.0,14.0,51,-99.99,,,-99.99,,2013-05-25 22:32:00,
2013-05-25 17:42:00,78.0,59.0,30.11,SSE,160,10.0,14.0,51,-99.99,,,-99.99,,2013-05-25 22:42:00,
2013-05-25 17:52:00,78.0,58.0,30.10,SSE,150,13.0,18.0,51,-99.99,,,-99.99,,2013-05-25 22:52:00,
2013-05-25 18:02:00,78.0,58.0,30.10,SSE,150,13.0,18.0,51,-99.99,,,-99.99,,2013-05-25 23:02:00,
2013-05-25 18:12:00,78.0,59.0,30.10,SE,145,10.0,17.0,53,-99.99,,,-99.99,,2013-05-25 23:12:00,
2013-05-25 18:22:00,78.0,59.0,30.10,SE,135,11.0,16.0,53,-99.99,,,-99.99,,2013-05-25 23:22:00,
2013-05-25 18:32:00,78.0,60.0,30.09,SE,140,14.0,18.0,53,-99.99,,,-99.99,,2013-05-25 23:32:00,
2013-05-25 18:42:00,78.0,60.0,30.09,SE,140,14.0,18.0,53,-99.99,,,-99.99,,2013-05-25 23:42:00,
2013-05-25 18:52:00,78.0,59.0,30.08,SSE,150,14.0,21.0,52,-99.99,,,-99.99,,2013-05-25 23:52:00,
2013-05-25 19:01:00,78.0,59.0,30.08,SSE,150,14.0,21.0,52,-99.99,,,-99.99,,2013-05-26 00:01:00,
2013-05-25 19:11:00,78.0,60.0,30.09,SSE,165,12.0,18.0,54,-99.99,,,-99.99,,2013-05-26 00:11:00,
2013-05-25 19:22:00,77.0,59.0,30.08,SSE,155,15.0,18.0,53,-99.99,,,-99.99,,2013-05-26 00:22:00,
2013-05-25 19:31:00,77.0,59.0,30.08,SSE,155,15.0,18.0,53,-99.99,,,-99.99,,2013-05-26 00:31:00,
2013-05-25 19:42:00,77.0,59.0,30.08,SSE,155,15.0,18.0,53,-99.99,,,-99.99,,2013-05-26 00:42:00,
2013-05-25 19:52:00,77.0,60.0,30.07,SSE,150,12.0,19.0,55,-99.99,,,-99.99,,2013-05-26 00:52:00,
2013-05-25 20:01:00,77.0,60.0,30.07,SSE,150,12.0,19.0,55,-99.99,,,-99.99,,2013-05-26 01:01:00,
2013-05-25 20:11:00,76.0,59.0,30.07,SSE,150,12.0,18.0,55,-99.99,,,-99.99,,2013-05-26 01:11:00,
2013-05-25 20:21:00,76.0,59.0,30.07,SSE,150,12.0,19.0,57,-99.99,,,-99.99,,2013-05-26 01:21:00,
2013-05-25 20:32:00,75.0,60.0,30.07,SSE,155,12.0,16.0,58,-99.99,,,-99.99,,2013-05-26 01:32:00,
2013-05-25 20:42:00,75.0,60.0,30.07,SSE,155,12.0,16.0,58,-99.99,,,-99.99,,2013-05-26 01:42:00,
2013-05-25 20:52:00,75.0,60.0,30.07,SE,145,12.0,17.0,60,-99.99,,,-99.99,,2013-05-26 01:52:00,
2013-05-25 21:02:00,75.0,60.0,30.07,SE,145,12.0,17.0,60,-99.99,,,-99.99,,2013-05-26 02:02:00,
2013-05-25 21:11:00,74.0,60.0,30.07,SSE,160,10.0,14.0,61,-99.99,,,-99.99,,2013-05-26 02:11:00,
2013-05-25 21:21:00,73.0,60.0,30.07,SSE,150,10.0,14.0,64,-99.99,,,-99.99,,2013-05-26 02:21:00,
2013-05-25 21:32:00,73.0,60.0,30.07,SE,140,8.0,13.0,65,-99.99,,,-99.99,,2013-05-26 02:32:00,
2013-05-25 21:42:00,73.0,60.0,30.07,SE,140,8.0,13.0,65,-99.99,,,-99.99,,2013-05-26 02:42:00,
2013-05-25 21:52:00,71.0,61.0,30.07,SE,130,6.0,11.0,69,-99.99,,,-99.99,,2013-05-26 02:52:00,
2013-05-25 22:01:00,71.0,61.0,30.07,SE,130,6.0,11.0,69,-99.99,,,-99.99,,2013-05-26 03:01:00,
2013-05-25 22:11:00,71.0,60.0,30.08,SE,125,8.0,13.0,70,-99.99,,,-99.99,,2013-05-26 03:11:00,
2013-05-25 22:21:00,71.0,60.0,30.08,SE,135,9.0,13.0,70,-99.99,,,-99.99,,2013-05-26 03:21:00,
2013-05-25 22:33:00,71.0,60.0,30.08,SE,135,9.0,13.0,70,-99.99,,,-99.99,,2013-05-26 03:33:00,
2013-05-25 22:42:00,70.0,60.0,30.08,SE,130,6.0,15.0,71,-99.99,,,-99.99,,2013-05-26 03:42:00,
2013-05-25 22:53:00,70.0,60.0,30.09,SE,145,9.0,12.0,70,-99.99,,,-99.99,,2013-05-26 03:53:00,
2013-05-25 23:02:00,70.0,60.0,30.09,SE,145,9.0,12.0,70,-99.99,,,-99.99,,2013-05-26 04:02:00,
2013-05-25 23:12:00,70.0,60.0,30.10,SE,145,9.0,14.0,70,-99.99,,,-99.99,,2013-05-26 04:12:00,
2013-05-25 23:23:00,70.0,60.0,30.10,SSE,150,10.0,13.0,70,-99.99,,,-99.99,,2013-05-26 04:23:00,
2013-05-25 23:33:00,69.0,59.0,30.11,SSE,150,9.0,14.0,70,-99.99,,,-99.99,,2013-05-26 04:33:00,
2013-05-25 23:42:00,69.0,59.0,30.11,SSE,150,9.0,14.0,70,-99.99,,,-99.99,,2013-05-26 04:42:00,
2013-05-25 23:52:00,69.0,59.0,30.11,SE,140,10.0,13.0,72,-99.99,,,-99.99,,2013-05-26 04:52:00,